Regional Weather Roundup
Issued by NWS Pendleton, OR

Home | Current Version | Previous Version | Text Only | Print | Product List | Glossary On
Versions: 1 2 3 4 5 6 7 8 9 10 11 12 13 14 15 16 17 18 19 20 21 22 23 24 25 26 27 28 29 30 31 32 33 34 35 36 37 38 39 40 41 42 43 44 45 46 47 48 49 50
163
ASUS46 KPDT 210825
RWRPDT
PENDLETON REGIONAL WEATHER ROUNDUP
NATIONAL WEATHER SERVICE PENDLETON OREGON
1200 AM PST TUE NOV 21 2017

NOTE: FAIR INDICATES FEW OR NO CLOUDS BELOW 12,000 FEET WITH NO
SIGNIFICANT WEATHER AND/OR OBSTRUCTIONS TO VISIBILITY.

# INDICATES UNOFFICIAL STATION AND DATA

WAZ520-210910-
EAST SLOPES OF WASHINGTON CASCADES

CITY            SKY/WX      TMP DP  RH  WIND    PRES   REMARKS
#BULLFROG       N/A         29  29  100 CALM    N/A
#CLE ELUM HS    N/A         29  28  96  CALM    30.04S
#CLE ELUM LAKE  N/A         32  27  82  CALM    30.02S
#EASTON DOT     N/A         31  30  96  CALM    N/A
#GLENWOOD       N/A         30  28  92  CALM    30.11R
#NELSON 3SW     N/A         30  29  96  CALM    30.34F
#NILE           N/A         29  28  96  CALM    29.40R
#TROUT LAKE 1NE N/A         32  31  96  CALM    30.12R
#TROUT LAKE 1E  N/A         30  29  96  CALM    30.10S
$$

WAZ521-210910-
SIMCOE HIGHLANDS

CITY            SKY/WX      TMP DP  RH  WIND    PRES   REMARKS
#BICKLETON HS   N/A         N/A N/A N/A CALM    30.08S
#SATUS PASS DOT N/A         31  30  96  NE2     N/A
#CENTERVILLE 1SWN/A         32  27  82  CALM    30.08R
#GOLDENDALE 4W  N/A         33  23  66  CALM    30.11R
#GOODNOE HILLS  N/A         42  35  76  NW8     N/A
#LYLE 6NE       N/A         38  36  92  N3      30.11R
#PITT 4SE       N/A         36  33  89  CALM    30.13R
$$

WAZ026-210910-
KITTITAS VALLEY

CITY            SKY/WX      TMP DP  RH  WIND    PRES   REMARKS
ELLENSBURG AP   CLEAR       36  28  72  N6      30.07S
#ELLENSBURG CWU N/A         35  30  82  CALM    30.06S
#ELLENSBURG 3NE N/A         34  26  72  CALM    28.15S
#ELLENSBURG 1E  N/A         32  29  89  CALM    30.17S
#KITTITAS 3S    N/A         34  30  85  CALM    30.11S
#MANASTASH RDG  N/A         37  37  100 NW5     N/A
#RYEGRASS DOT   N/A         32  27  82  NW8     N/A
$$

WAZ027-210910-
YAKIMA VALLEY

CITY            SKY/WX      TMP DP  RH  WIND    PRES   REMARKS
SUNNYSIDE AP    PTCLDY      34  32  92  NE3     30.10R
YAKIMA AIRPORT  CLOUDY      36  32  85  W8      30.09R
YAKIMA-VAGABOND PTCLDY      38  30  73  N3      30.06S
#DONALD 2NE     N/A         42  18  38  W3      28.94R
#GRANDVIEW      N/A         38  33  82  CALM    30.03R
#MABTON         N/A         35  32  89  CALM    30.09R
#MOXEE 2E       N/A         38  N/A N/A CALM    29.60F
#NACHES 2SW     N/A         39  34  82  W7      30.04S
#OUTLOOK DOT    N/A         40  35  82  CALM    30.06R
#PARKER DOT     N/A         43  32  65  SW3     30.09R
#TERRACE HTS    N/A         39  33  79  CALM    30.07R
#TOPPENISH      N/A         38  34  85  CALM    30.02R
#I82 S UMTANUM RN/A         40  25  55  NW1     N/A
#UNION GAP DOT  N/A         42  33  70  N3      30.12R
#WHITE SWAN 5E  N/A         34  31  89  CALM    30.11R
#WILEY CITY 3W  N/A         36  28  72  CALM    30.05R
#ZILLAH DOT     N/A         40  34  79  NE5     N/A
$$

WAZ028-210910-
LOWER COLUMBIA BASIN...WASHINGTON

CITY            SKY/WX      TMP DP  RH  WIND    PRES   REMARKS
PASCO           CLEAR       34  32  92  CALM    30.12R
PROSSER AWOS    N/A         36  34  92  E3      30.13R
RICHLAND AWOS   CLEAR       38  37  96  CALM    30.11S
#BENTON CITY    N/A         38  34  85  CALM    30.03R
#CONNELL 5N     N/A         33  31  92  NE3     30.12R
#CONNELL 5NW    N/A         35  32  89  SE1     30.07R
#ELTOPIA 6NW    N/A         40  35  82  CALM    29.07R
#KAHLOTUS       N/A         39  36  89  CALM    30.11R
#KENNEWICK 3S   N/A         43  38  82  CALM    30.11S
#PATERSON       N/A         42  38  86  CALM    30.09S
#PROSSER DOT    N/A         36  34  92  E1      30.10R
#SAGEMOOR 2W    N/A         38  33  82  NE2     29.98S
#TOUCHET 2S     N/A         40  34  79  N1      30.10R
#WEST PASCO     N/A         35  32  89  CALM    30.11R
$$

WAZ029-210910-
FOOTHILLS OF THE BLUES...WASHINGTON

CITY            SKY/WX      TMP DP  RH  WIND    PRES   REMARKS
WALLA WALLA AP  CLEAR       40  34  79  E7      30.11R
#CLYDE 6NW      N/A         38  35  89  SE2     30.11S
#DAYTON SCHOOL  N/A         40  30  67  CALM    30.12R
#DELANEY DOT    N/A         38  34  85  CALM    30.14R
#LOWDEN 2SE     N/A         37  34  89  E2      30.08R
#PLEASANT VIEW 1N/A         40  37  89  S3      30.15S
#PRESCOTT       N/A         37  34  89  CALM    30.11S
#WHITMAN COLLEGEN/A         45  35  68  SE3     30.08R
#WAITSBURG 5S   N/A         39  34  82  E3      30.20R
#WAITSBURG 6SSE N/A         40  32  73  E2      30.10R
#WAITSBURG 8N   N/A         34  N/A N/A S1      30.12S
#WALLA WALLA 5E N/A         40  35  82  NE5     N/A
#WHITMAN MISSIONN/A         39  35  85  CALM    30.14R
$$

WAZ030-210910-
BLUE MOUNTAINS...WASHINGTON

CITY            SKY/WX      TMP DP  RH  WIND    PRES   REMARKS
#DIXIE 5SE      N/A         42  32  67  S3      30.01R
$$

ORZ009-041-WAZ024-210910-
COLUMBIA RIVER GORGE

CITY            SKY/WX      TMP DP  RH  WIND    PRES   REMARKS
HOOD RIVER AP   CLOUDY      39  37  92  CALM    30.11R
THE DALLES AP   MOCLDY      41  38  89  NE5     30.11R
#ARLINGTON AIRPON/A         42  38  86  W5      30.11R
#ARLINGTON HS   N/A         42  36  79  SE1     30.01R
#CELILO DOT     N/A         44  37  76  SW1     N/A
#LYLE           N/A         43  39  86  NE2     30.13R
#MARYHILL       N/A         41  36  82  N1      N/A
#MURDOCK        N/A         43  40  89  N1      30.08R
#RUFUS DOT      N/A         43  N/A N/A S9      N/A
#SMITHVILLE     N/A         39  37  92  CALM    30.07R

$$

ORZ510-210910-
NORTH CENTRAL OREGON

CITY            SKY/WX      TMP DP  RH  WIND    PRES   REMARKS
#ANTELOPE       N/A         46  39  76  CALM    29.91S
#CHENOWITH 1W   N/A         40  38  92  SE3     N/A
#COW CYN RST AREN/A         42  N/A N/A NE6     N/A
#DUFUR          N/A         37  35  92  CALM    30.07R
#DUFUR 9E       N/A         41  37  86  E6      30.13F
#GRASS VALLEY 1SN/A         40  38  92  E2      30.06S
#KENT DOT       N/A         40  30  67  E6      N/A
#MAUPIN SCHOOL  N/A         45  38  76  CALM    30.13R
#MORO SCHOOL    N/A         38  38  100 CALM    30.06S
#SHANIKO 5WSW   N/A         40  -53  1  NE14    N/A    WCI 32
#SHANIKO 4NW    N/A         40  32  73  E8      30.04S
#TYGH VALLEY 2NEN/A         43  39  86  CALM    30.09R
#WAPANITIA AIRPON/A         42  38  86  CALM    30.11R
#WASCO DOT      N/A         40  37  89  E1      N/A
#WASCO 5NE      N/A         40  27  59  S5      30.09S
$$

ORZ511-210910-
CENTRAL OREGON

CITY            SKY/WX      TMP DP  RH  WIND    PRES   REMARKS
BEND AIRPORT    CLOUDY      52  46  80  SW5     30.06R
PRINEVILLE AP   CLOUDY      46  43  89  CALM    30.05S
REDMOND AIRPORT CLOUDY      46  43  89  CALM    30.04S
#ASHWOOD SCHOOL N/A         43  40  89  CALM    30.02S
#BEND 1SW       N/A         46  44  93  CALM    N/A
#BEND-AWBREY    N/A         49  46  89  SW6     30.04R
#BEND-KIM LN    N/A         44  42  93  CALM    29.97S
#CULVER         N/A         42  38  86  CALM    29.90R
#CULVER 8W      N/A         44  41  89  CALM    30.05F
#LAKE BILLY CHINN/A         45  N/A N/A CALM    30.14R
#MADRAS 4S      N/A         43  20  39  CALM    N/A
#POWELL BUTTE   N/A         51  46  83  S3      29.99S
#PRINEVILLE     N/A         49  45  86  CALM    30.11S
#PRINEVILLE 3N  N/A         44  42  93  N1      30.02S
#WARM SPRINGS   N/A         41  38  89  CALM    29.92S

$$


ORZ509-210910-
EAST SLOPES OF OREGON CASCADES

CITY            SKY/WX      TMP DP  RH  WIND    PRES   REMARKS
SISTERS AWOS    N/A         45  43  93  CALM    N/A
#CAMP SHERMAN   N/A         46  44  93  CALM    30.08R
#LA PINE 4NW    N/A         44  41  89  CALM    30.12R
#LAVA BUTTE DOT N/A         45  43  93  CALM    N/A
#SISTERS ODOT   N/A         44  42  93  CALM    N/A
#SISTERS 3N     N/A         43  40  89  CALM    30.06S
#SUNRIVER       N/A         45  44  96  CALM    30.08S
#TUMALO 3W      N/A         45  42  89  CALM    29.91S
#WANOGA BUTTE D N/A         41  41  100 W2      N/A

$$

ORZ044-210910-
LOWER COLUMBIA BASIN...OREGON

CITY            SKY/WX      TMP DP  RH  WIND    PRES   REMARKS
HERMISTON       PTCLDY      33  33  100 E3      30.09S
#BOARDMAN SCHOOLN/A         39  36  89  CALM    30.09S
#BOARDMAN 8SW   N/A         43  38  82  NE1     30.11R
#I-84 EX 198 DOTN/A         43  34  70  NE6     N/A
#IONE SCHOOL    N/A         38  23  54  CALM    30.11S
#UMATILLA       N/A         38  33  82  CALM    30.04R
$$

ORZ507-210910-
NORTHERN FOOTHILLS OF THE BLUES

CITY            SKY/WX      TMP DP  RH  WIND    PRES   REMARKS
PENDLETON AIRPT CLEAR       37  33  85  E10     30.09R
#ADAMS 3WNW     N/A         37  33  85  E2      30.10R
#ATHENA         N/A         40  34  79  CALM    30.13R
#CAYUSE         N/A         42  37  82  E15     30.08S WCI 34
#HELIX SCHOOL   N/A         32  30  92  CALM    30.11R
#HELIX 3N       N/A         40  35  82  S5      30.06R
#HOLDMAN 5SE    N/A         36  32  85  SE1     30.08R
#HOLDMAN 6E     N/A         39  35  85  CALM    29.91R
#M-F GROVE ELEM N/A         42  33  70  CALM    30.08R
#M-FREEWATER 5SEN/A         42  35  76  E7      30.10R
#PENDLETON DNTN N/A         37  29  72  CALM    30.07S
#PDT AQUATIC CTRN/A         37  30  75  CALM    30.15S
#PDT SUNRIDGE   N/A         34  32  92  CALM    30.11S
#PENDLETON 6SE  N/A         40  34  79  NW2     30.04S
#PENDLETON 7NW  N/A         36  31  82  CALM    29.92F
#PILOT ROCK 1S  N/A         36  29  75  CALM    30.09S
#PILOT ROCK     N/A         37  34  89  CALM    30.10S
#TUTUILLA       N/A         34  31  89  CALM    30.13S
#UMAPINE 2E     N/A         39  35  85  S2      30.09R
#WESTON SCHOOL  N/A         40  32  73  CALM    30.04R

$$

ORZ508-210910-
SOUTHERN FOOTHILLS OF THE BLUES

CITY            SKY/WX      TMP DP  RH  WIND    PRES   REMARKS
LEXINGTON       CLOUDY      45  39  79  E10     30.10S
#AJAX           N/A         43  32  65  N2      30.20S
#CONDON 5W      N/A         42  34  73  E2      30.03S
#HEPPNER EOC    N/A         42  37  82  E7      30.00S
#HEPPNER 4NE    N/A         43  38  82  CALM    30.06S
#LEXINGTON 2SE  N/A         43  38  82  SE7     30.04S
#MIKKALO        N/A         42  37  82  SE2     30.16S
#OLEX 4N        N/A         41  38  89  S6      30.06S
#RUGGS 5NE      N/A         43  39  86  CALM    30.20S
#RUGGS 2SW      N/A         46  40  79  S3      30.08S

$$

ORZ502-503-210910-
BLUE MOUNTAINS

CITY            SKY/WX      TMP DP  RH  WIND    PRES   REMARKS
MEACHAM         CLOUDY      31  29  92  CALM    30.08S
#BATTLE MTN DOT N/A         38  35  89  S3      N/A
#GRANITE        N/A         36  34  92  CALM    30.13F
#GREENHORN 9SW  N/A         42  40  93  CALM    30.08R
#LADD CYN SMT   N/A         35  34  96  E2      N/A
#LADD CREEK ODOTN/A         37  36  96  SW2     N/A
#LONG CREEK HS  N/A         43  43  100 NE1     30.08F
#N POWDER DOT   N/A         36  35  96  S2      N/A
#PIKES PEAK     N/A         41  29  62  CALM    27.99S
#TOLLGATE       N/A         30  28  92  CALM    29.93R
#TROY SCHOOL    N/A         34  32  92  CALM    30.05R
#UKIAH          N/A         35  33  92  CALM    30.00F
#WESTON 4E      N/A         36  32  85  E6      30.08R
$$

ORZ505-210910-
JOHN DAY BASIN

CITY            SKY/WX      TMP DP  RH  WIND    PRES   REMARKS
JOHN DAY        CLOUDY      53  46  77  S10     30.10R
#ANTELOPE 9ESE  N/A         43  38  82  SW2     N/A
#DAYVILLE SCHOOLN/A         50  41  71  CALM    30.04R
#MITCHELL 8NW   N/A         45  39  79  CALM    30.10R
#MONUMENT HS    N/A         47  40  76  CALM    30.04S
#MT. VERNON 5SE N/A         50  44  80  E3      30.06R
#WINLOCK        N/A         48  44  86  CALM    30.03S
$$

ORZ506-210910-
OCHOCO AND JOHN DAY HIGHLANDS

CITY            SKY/WX      TMP DP  RH  WIND    PRES   REMARKS
#HORSE RIDGE DO N/A         50  43  77  S12     N/A
#PAULINA ODOT   N/A         49  44  83  NE3     N/A
#PINE MTN OBS   N/A         41  40  96  SE14    N/A    WCI 33
#PRAIRIE CITY   N/A         46  42  86  CALM    30.25R
#SENECA         N/A         45  N/A N/A S8      N/A
#SENECA 9NW     N/A         40  39  96  CALM    30.12R
$$

ORZ049-210910-
GRANDE RONDE VALLEY

CITY            SKY/WX      TMP DP  RH  WIND    PRES   REMARKS
LA GRANDE       MOCLDY      41  38  89  S9      30.13R
#COVE SCHOOL    N/A         39  37  92  CALM    30.13R
#COVE 6NW       N/A         36  33  89  CALM    30.15R
#ELGIN 3N       N/A         31  28  88  CALM    30.09R
#ELGIN 1E       N/A         34  29  82  CALM    N/A
#IMBLER SCHOOL  N/A         35  32  89  CALM    30.09R
#ISLAND CITY 4N N/A         44  43  96  CALM    30.02S
#LADD CYN DOT   N/A         42  40  93  SE8     N/A
#UNION 1S       N/A         44  40  86  S5      30.14R
$$

ORZ050-210910-
WALLOWA COUNTY

CITY            SKY/WX      TMP DP  RH  WIND    PRES   REMARKS
JOSEPH AIRPORT  PTCLDY      34  34  100 S6      30.12R
#ENTERPRISE HS  N/A         35  33  92  CALM    30.01S
#IMNAHA SCHOOL  N/A         40  37  89  CALM    30.14R
#IMNAHA 10S     N/A         38  36  92  CALM    30.11R
#JOSEPH         N/A         34  32  92  CALM    30.52R
#JOSEPH 3N      N/A         33  30  89  CALM    30.08R
#JOSEPH 3W      N/A         34  33  96  S2      30.52R
#LOSTINE        N/A         33  30  89  CALM    29.98R
#LOSTINE 3SE    N/A         35  32  89  CALM    30.16R
#MT HOWARD 8000 N/A         33  11  39  W15G30  30.10R WCI 23
#PROMISE 1S     N/A         30  28  92  CALM    30.27R
#WALLOWA SCHOOL N/A         31  29  92  CALM    30.10R



$$



USA.gov is the U.S. government's official web portal to all federal, state and local government web resources and services.